Temperature
14 14 14 14 14 14 14 14 14 15 15 15 15 15 15 15 15 15 15 15 15 15 15 15 15 15 15 15 15 15 15 15 15 15 15 15 15 15 15 15 15 15 15
14 14 14 14 14 14 14 14 14 14 14 15 15 15 15 15 15 15 15 15 15 15 15 15 15 15 15 15 15 15 15 15 15 15 15 15 15 15 15 15 15 15 15
14 13 14 14 14 14 14 14 14 14 14 14 14 15 15 15 15 14 14 15 15 15 15 15 15 15 15 15 15 15 15 15 15 15 14 14 14 15 15 15 15 15 15
13 13 13 14 13 14 14 14 14 14 14 14 14 14 14 14 14 14 14 14 14 14 14 14 15 14 14 14 15 14 14 14 14 14 14 13 14 14 15 15 15 15 15
13 13 13 13 13 13 13 13 13 14 13 14 14 14 14 14 14 14 14 14 14 14 14 14 14 14 14 14 14 14 14 14 14 14 13 13 14 14 14 14 14 14 14
13 13 13 13 13 13 13 13 13 13 13 13 13 14 14 14 14 14 14 14 14 14 14 14 14 14 14 14 14 14 14 14 14 13 13 13 13 14 14 14 14 14 14
12 12 13 13 13 13 13 13 13 13 13 13 13 13 14 14 14 14 14 14 14 14 14 14 14 14 14 14 14 14 14 14 13 13 13 13 13 14 14 14 14 14 14
12 12 12 12 12 12 12 13 12 12 13 13 13 13 13 13 14 14 14 14 14 14 13 13 13 13 13 13 13 13 13 13 13 13 13 13 13 13 13 13 13 13 13
12 12 12 12 12 12 12 12 12 12 12 13 13 13 13 13 13 14 14 13 13 13 13 13 13 13 13 13 13 13 13 13 13 13 12 13 13 13 13 13 13 13 13
12 12 12 12 12 12 12 12 12 12 12 12 12 12 13 13 13 13 13 13 13 13 13 13 13 13 13 13 13 13 13 13 12 12 12 12 13 13 13 13 13 13 13
12 12 12 12 11 11 11 11 11 11 11 12 12 12 12 12 12 12 13 13 13 13 13 13 13 13 13 13 13 13 13 12 12 12 12 12 12 12 12 12 12 12 12
11 11 11 11 11 11 11 11 11 11 11 11 11 11 12 12 12 12 12 12 13 13 12 12 12 12 12 12 12 12 12 12 12 12 12 12 12 12 12 12 12 12 12
11 11 11 11 11 11 11 11 11 11 11 11 11 11 11 11 11 12 12 12 12 12 12 12 12 12 12 12 12 12 12 12 12 12 12 12 12 12 12 12 12 12 12
11 11 11 11 11 11 11 10 10 10 10 10 11 11 11 11 11 11 11 12 12 11 12 12 11 11 11 11 11 11 12 11 11 11 11 12 12 12 12 11 11 11 11
10 10 10 10 10 10 10 10 10 10 10 10 10 10 11 11 11 11 11 11 11 11 11 11 11 11 11 11 11 11 11 11 11 11 11 11 11 11 11 11 11 11 11
10 10 10 10 10 10 10 10 10 10 10 10 10 10 10 10 11 11 11 11 11 11 11 11 11 11 10 10 10 10 10 11 11 11 11 11 11 11 11 11 11 10 10
10 10 10 10 10 10 10 10 10 10 10 10 10 10 10 10 10 10 11 11 11 11 11 11 10 10 10 10 10 10 10 10 10 10 10 10 10 10 10 10 10 10 10
10 10 10 9 9 9 9 9 10 10 10 10 10 10 10 10 10 10 10 10 10 10 10 10 10 10 10 10 9 9 9 10 10 10 10 10 10 10 10 10 10 10 10
10 10 9 9 9 9 9 9 9 9 9 9 9 9 9 10 10 10 10 10 10 10 10 10 10 10 10 9 9 9 9 9 9 9 9 9 10 10 10 10 10 10 9
10 9 9 9 9 9 9 9 9 9 9 9 9 9 9 9 9 9 9 9 9 9 9 9 9 9 9 9 9 9 9 9 9 9 9 9 9 9 9 9 9 9 9
9 9 9 9 9 9 9 9 9 9 9 9 9 9 9 9 9 9 9 9 9 9 9 9 9 9 9 8 8 8 8 8 8 9 8 9 9 9 9 9 9 9 9
9 9 9 8 8 8 8 8 8 8 8 8 8 8 8 8 8 8 8 8 9 8 8 9 9 8 8 8 8 8 7 7 8 8 8 8 8 9 9 9 9 8 8
8 8 8 8 8 8 8 8 8 8 8 8 8 8 8 8 8 8 8 8 8 8 8 8 8 8 8 8 8 7 7 7 7 7 8 8 8 8 8 8 8 8 8
8 8 8 8 8 8 7 7 7 7 7 7 7 8 8 8 8 8 8 8 8 8 8 8 8 8 8 8 8 8 8 7 7 6 7 7 7 8 8 8 8 8 8
8 8 8 8 7 7 7 7 7 7 7 7 7 7 7 7 7 7 7 7 7 7 7 7 7 7 7 7 7 7 7 7 8 7 6 7 7 7 7 7 7 7 7
7 7 7 7 7 7 7 7 7 7 7 7 7 7 7 7 7 7 7 7 7 7 7 7 7 7 7 7 7 7 7 7 7 7 7 7 6 7 7 7 7 7 7
Wind_Speed
2 4 5 5 6 6 6 5 5 5 5 5 5 5 6 6 6 7 8 8 8 8 9 10 10 11 12 12 12 12 13 13 13 13 13 13 12 12 12 10 10 13 14
1 4 6 5 6 6 6 5 5 5 5 5 5 5 6 6 6 7 8 8 8 9 9 9 10 11 12 12 13 13 13 13 13 12 12 13 12 12 12 10 9 13 14
2 4 6 4 5 5 5 5 5 5 5 5 5 5 5 6 7 7 8 8 8 8 9 9 10 10 11 12 13 12 13 13 12 10 8 10 11 11 11 11 13 14 13
2 4 5 5 5 5 5 5 6 5 5 5 5 5 5 6 6 6 7 7 8 8 8 9 9 10 11 12 12 12 12 12 10 7 7 9 10 11 11 12 12 13 13
2 3 4 4 5 6 5 5 5 5 5 5 5 5 5 6 6 6 6 7 7 8 8 8 9 10 10 11 12 12 12 11 9 7 8 8 9 11 11 12 12 13 13
2 3 4 4 4 5 5 5 5 5 5 5 5 5 5 6 6 6 6 7 7 7 8 8 9 10 11 11 11 11 11 9 8 7 8 8 9 11 11 12 13 13 13
3 3 4 4 3 3 5 5 5 5 5 5 5 6 6 5 5 5 6 7 7 7 8 9 10 10 10 11 10 10 9 7 6 7 7 7 9 11 11 11 12 12 12
2 2 2 4 3 2 2 3 4 5 5 5 5 5 6 6 5 6 6 7 7 8 8 9 10 10 11 11 10 9 8 7 6 7 7 7 9 10 10 11 11 12 12
2 2 2 2 3 3 1 1 2 3 4 5 5 5 5 5 5 6 6 7 7 8 8 9 10 10 10 10 10 9 8 5 6 6 6 7 9 9 10 10 11 11 11
1 1 1 1 2 2 2 2 2 1 3 4 5 5 4 5 5 6 7 7 7 7 8 10 10 10 10 10 10 9 8 6 6 6 6 8 9 10 10 10 10 11 11
1 1 1 1 1 2 2 2 3 2 3 4 5 6 5 5 5 6 6 7 7 8 8 9 10 10 10 9 9 8 7 6 6 5 5 8 9 10 10 10 10 11 11
2 2 1 2 2 2 2 2 3 3 4 5 5 6 5 4 4 4 6 7 7 8 8 9 10 10 9 8 8 7 6 6 5 5 6 9 9 10 10 10 10 11 11
3 2 2 2 2 2 2 2 2 2 3 4 5 5 4 4 3 4 6 6 7 7 7 9 9 7 7 6 7 6 5 5 5 5 6 8 9 10 10 10 10 11 11
3 3 3 2 3 3 3 2 3 2 3 3 5 5 5 4 3 4 4 5 5 5 6 6 6 7 6 7 7 6 6 4 4 5 6 8 8 9 10 10 10 11 11
4 4 3 3 4 3 3 2 3 3 3 4 4 5 5 4 4 4 4 4 4 5 5 5 6 6 6 6 6 6 6 5 5 5 5 7 7 8 9 9 10 11 11
5 5 4 4 4 4 3 3 3 3 3 4 4 5 5 5 4 4 4 4 4 5 5 5 6 6 5 5 5 5 5 5 5 5 5 6 6 6 7 9 10 10 11
5 4 4 4 4 5 4 4 3 3 3 3 3 5 6 5 5 4 4 4 4 5 6 6 6 5 5 5 5 5 4 4 4 5 4 4 5 5 5 7 9 10 11
4 4 4 3 4 4 4 3 3 3 3 3 3 4 5 5 5 4 4 4 5 5 5 5 5 5 5 5 4 4 3 3 3 4 4 3 3 4 5 5 7 9 10
4 4 3 3 3 3 3 3 3 3 3 3 3 3 4 5 6 5 4 4 5 4 4 5 5 5 5 5 4 3 2 2 2 3 3 3 3 3 4 6 7 8 9
3 3 3 3 3 3 3 2 2 2 2 2 2 3 4 5 6 5 4 5 5 4 4 5 6 5 5 5 4 3 2 1 1 2 3 3 3 4 4 5 6 7 8
2 2 3 3 3 2 2 3 2 2 2 2 2 3 4 5 6 5 4 5 5 4 5 5 5 6 4 5 4 2 1 1 1 1 2 3 4 3 4 4 5 6 6
1 2 2 3 3 3 3 3 2 2 2 2 2 3 4 5 6 5 5 5 5 4 5 6 6 5 3 4 4 3 2 2 2 2 2 3 3 3 4 4 4 5 5
1 2 2 2 3 3 3 2 2 2 1 1 2 3 4 4 5 5 6 6 6 6 6 6 7 7 5 4 4 3 3 4 2 3 4 4 4 3 4 4 4 5 5
1 1 2 2 3 3 4 4 4 3 3 3 3 3 3 4 5 5 5 6 6 5 6 6 6 5 7 6 3 2 2 1 3 3 3 4 4 4 4 4 4 5 5
0 1 1 2 3 4 4 4 5 4 3 2 3 3 4 4 4 4 5 5 5 5 6 6 6 6 6 6 5 3 2 1 2 3 3 4 4 4 4 4 4 5 5
1 0 1 2 2 3 4 4 5 5 4 4 4 4 4 3 4 5 5 6 6 6 6 7 6 7 6 6 6 5 4 3 4 3 3 4 4 4 4 4 4 5 5
Wind_Direction
152 159 147 163 155 150 142 134 128 122 121 125 127 129 132 134 132 133 134 134 131 128 125 121 120 124 124 119 115 112 110 107 104 101 100 99 99 103 104 104 109 100 98
166 163 145 162 160 158 150 144 139 132 132 133 133 130 132 136 135 134 137 140 135 132 128 123 121 120 121 120 117 114 111 107 105 104 106 104 99 101 102 93 83 100 102
143 157 153 160 163 157 156 156 149 145 143 139 138 132 132 131 129 130 133 136 134 130 128 124 120 118 119 119 118 116 114 111 109 114 128 116 108 104 106 102 98 102 101
139 150 153 152 164 157 161 163 160 160 154 145 142 136 130 129 127 131 131 135 138 131 126 127 124 122 121 121 120 117 115 113 113 129 123 112 113 109 109 110 106 106 104
137 144 138 145 161 163 164 168 168 164 163 157 149 146 137 132 131 133 137 134 135 134 132 132 127 126 124 124 124 121 118 117 122 132 113 112 111 112 113 111 109 106 104
133 143 136 142 160 166 170 171 172 171 165 164 159 155 149 142 141 136 137 138 136 136 136 135 133 130 127 125 127 124 123 127 141 123 115 114 114 115 115 112 108 108 106
121 112 128 122 129 156 175 178 180 178 173 169 165 160 153 147 144 145 141 144 142 142 141 137 137 135 130 127 125 125 125 131 139 125 118 112 110 114 116 116 114 112 111
118 112 124 132 120 128 149 154 178 186 183 175 170 165 162 155 151 152 148 146 148 146 144 140 139 136 132 129 127 124 125 144 140 133 127 119 114 120 120 118 118 117 114
124 122 122 152 159 156 145 171 175 185 181 181 173 167 160 158 156 155 152 149 147 145 145 143 140 139 136 132 130 127 125 144 149 139 135 127 124 129 125 123 123 120 118
126 145 160 168 179 191 196 184 192 196 183 175 169 156 149 153 152 154 155 149 146 143 142 144 142 140 135 133 132 130 132 151 149 142 141 130 130 133 129 127 129 127 122
214 213 209 217 199 198 212 193 191 188 186 174 166 146 157 170 163 161 153 144 144 144 140 143 145 142 138 136 135 135 147 152 146 141 136 130 138 135 130 127 127 128 123
237 232 230 229 223 205 195 194 206 204 195 186 182 170 176 180 171 155 136 139 139 140 140 144 147 148 154 150 142 150 151 147 140 134 127 130 142 138 134 130 126 127 125
237 231 228 232 219 203 182 196 205 209 197 183 180 179 177 170 164 161 154 149 152 156 154 152 157 160 161 155 154 152 147 143 133 127 126 132 142 141 141 138 133 130 128
244 241 238 225 219 205 192 191 194 199 195 182 179 184 178 169 174 170 168 164 164 164 158 159 155 156 155 154 153 146 140 135 130 124 118 129 139 146 148 146 142 138 135
241 245 240 228 219 211 197 195 198 200 199 193 183 183 184 173 173 173 172 167 165 161 161 160 158 152 151 149 147 147 142 139 137 129 120 120 134 145 151 150 149 145 142
238 237 234 224 216 211 201 195 203 202 193 195 187 177 178 179 172 171 172 167 162 161 163 165 159 156 153 149 146 144 142 141 139 135 131 125 127 142 155 159 155 152 147
243 237 227 219 205 205 205 196 189 189 180 186 185 177 179 178 176 174 173 170 161 159 156 155 154 151 149 149 148 143 137 142 144 142 141 143 141 137 151 165 163 157 152
239 235 227 212 199 199 203 193 182 180 177 182 178 176 176 176 173 174 173 172 164 159 156 156 159 159 158 156 149 143 139 133 145 144 144 150 150 154 144 148 162 162 157
229 229 220 204 193 193 194 181 173 169 175 180 174 173 176 178 178 176 174 164 161 163 163 162 162 163 161 153 141 134 132 134 147 150 152 151 152 161 160 139 145 157 161
218 219 201 193 185 182 179 170 161 160 172 176 179 182 179 180 182 177 170 165 165 167 167 167 158 153 157 150 134 117 106 121 149 167 171 160 159 168 170 166 158 147 152
199 206 190 186 174 171 181 185 181 187 184 181 187 189 188 186 184 181 175 175 178 179 178 173 159 152 154 154 140 126 104 122 174 187 189 179 170 171 169 172 172 162 158
189 197 190 189 178 181 194 197 203 201 205 195 189 194 191 189 191 191 186 185 182 181 182 177 169 166 164 176 171 163 180 202 209 214 206 202 190 173 171 173 174 169 171
224 217 203 202 191 186 186 180 167 167 172 186 202 205 204 196 193 194 194 192 188 183 189 190 188 182 175 187 201 196 193 205 185 199 209 205 199 188 179 176 176 172 180
240 228 214 205 193 188 184 186 186 194 207 221 215 211 203 202 200 198 195 196 194 193 196 198 198 198 183 184 195 240 252 197 186 178 195 203 201 201 195 185 191 187 184
233 272 240 201 196 189 189 196 201 211 218 216 210 209 203 203 205 206 201 198 199 201 200 201 199 202 198 195 193 194 203 207 220 202 199 192 196 205 203 201 202 199 193
61 211 245 202 193 189 195 201 207 213 212 207 211 209 209 206 210 214 211 204 205 207 204 205 202 205 207 207 203 202 203 203 208 211 213 201 206 200 195 198 205 204 196
Height
1522 1523 1523 1524 1525 1526 1526 1527 1527 1528 1528 1529 1529 1529 1530 1531 1532 1532 1533 1534 1535 1535 1536 1536 1537 1538 1538 1539 1539 1540 1540 1540 1541 1542 1542 1542 1543 1543 1544 1544 1545 1545 1545
1522 1523 1523 1524 1525 1525 1526 1526 1527 1527 1528 1528 1529 1529 1530 1531 1532 1532 1533 1534 1535 1535 1536 1537 1538 1538 1539 1539 1540 1540 1541 1542 1542 1543 1543 1544 1544 1545 1545 1545 1546 1546 1547
1521 1522 1523 1524 1524 1525 1526 1526 1527 1527 1528 1528 1529 1529 1530 1531 1531 1532 1533 1534 1534 1535 1536 1537 1538 1538 1539 1540 1540 1541 1542 1543 1543 1544 1545 1546 1545 1546 1546 1547 1547 1548 1548
1521 1522 1522 1523 1524 1524 1525 1526 1526 1526 1527 1528 1528 1529 1530 1530 1531 1532 1532 1533 1534 1535 1536 1537 1538 1539 1540 1540 1541 1542 1543 1543 1544 1545 1547 1547 1547 1547 1547 1548 1548 1549 1549
1521 1522 1522 1522 1523 1524 1524 1525 1526 1526 1527 1527 1528 1528 1529 1530 1531 1531 1532 1533 1534 1535 1536 1537 1538 1539 1540 1540 1541 1542 1543 1544 1545 1546 1547 1547 1548 1548 1548 1549 1549 1550 1551
1521 1521 1521 1521 1522 1523 1524 1524 1525 1525 1526 1526 1527 1527 1528 1529 1530 1531 1531 1532 1533 1534 1535 1536 1537 1538 1539 1540 1541 1542 1543 1544 1545 1547 1547 1548 1549 1548 1549 1550 1550 1551 1551
1520 1520 1520 1520 1521 1522 1523 1523 1524 1525 1525 1525 1526 1527 1527 1528 1529 1530 1531 1532 1533 1534 1535 1536 1537 1538 1539 1540 1541 1542 1543 1544 1546 1547 1548 1548 1549 1549 1550 1550 1551 1551 1552
1519 1519 1519 1519 1519 1520 1521 1522 1523 1523 1524 1525 1525 1526 1527 1527 1528 1529 1530 1531 1532 1533 1534 1535 1536 1537 1539 1540 1541 1542 1543 1544 1546 1547 1548 1549 1549 1549 1550 1551 1551 1552 1553
1519 1518 1518 1518 1518 1518 1519 1520 1521 1522 1523 1523 1524 1525 1526 1526 1527 1528 1529 1530 1531 1532 1533 1534 1535 1537 1538 1539 1540 1542 1543 1544 1547 1547 1548 1549 1549 1550 1550 1551 1552 1552 1553
1517 1517 1517 1517 1517 1517 1518 1518 1519 1520 1521 1522 1523 1523 1524 1525 1526 1527 1528 1529 1530 1531 1532 1534 1535 1536 1537 1539 1540 1541 1543 1544 1546 1547 1548 1548 1549 1550 1550 1551 1552 1553 1553
1516 1516 1516 1516 1516 1516 1517 1517 1518 1519 1519 1520 1521 1522 1523 1524 1525 1526 1527 1528 1529 1530 1532 1533 1534 1535 1536 1538 1540 1541 1543 1544 1546 1546 1547 1548 1549 1550 1550 1551 1552 1553 1553
1514 1514 1514 1514 1514 1515 1515 1515 1516 1517 1518 1519 1519 1520 1521 1522 1524 1525 1525 1527 1528 1529 1530 1532 1533 1534 1536 1537 1539 1540 1542 1544 1545 1546 1546 1547 1548 1549 1550 1551 1552 1552 1553
1512 1512 1512 1512 1512 1512 1513 1513 1514 1515 1515 1516 1517 1518 1519 1520 1522 1523 1524 1525 1526 1528 1529 1530 1532 1533 1535 1536 1538 1539 1541 1543 1544 1545 1546 1547 1548 1549 1550 1551 1552 1552 1553
1509 1509 1509 1509 1509 1510 1510 1511 1512 1512 1513 1514 1515 1516 1517 1518 1520 1521 1523 1524 1525 1526 1527 1529 1531 1532 1534 1535 1537 1538 1540 1541 1543 1544 1545 1546 1547 1548 1549 1550 1551 1552 1553
1506 1506 1507 1507 1507 1507 1508 1509 1509 1511 1511 1512 1513 1514 1515 1516 1518 1519 1521 1522 1523 1525 1526 1528 1529 1531 1532 1534 1536 1537 1539 1540 1542 1543 1544 1545 1546 1548 1549 1550 1550 1551 1552
1503 1503 1504 1504 1504 1505 1505 1506 1507 1508 1509 1510 1510 1511 1513 1514 1515 1517 1518 1520 1521 1523 1524 1526 1528 1529 1531 1533 1534 1536 1537 1539 1540 1541 1543 1544 1545 1546 1548 1549 1550 1551 1551
1501 1500 1501 1501 1501 1502 1503 1504 1505 1506 1507 1508 1508 1509 1510 1512 1513 1515 1516 1518 1519 1520 1522 1524 1526 1528 1529 1531 1532 1534 1536 1537 1538 1540 1541 1543 1544 1545 1546 1548 1549 1550 1551
1498 1498 1498 1498 1498 1499 1500 1501 1502 1503 1504 1505 1506 1507 1508 1510 1511 1513 1514 1515 1517 1518 1520 1522 1524 1526 1527 1529 1530 1532 1534 1535 1537 1538 1540 1541 1542 1544 1545 1546 1547 1548 1549
1495 1495 1495 1496 1496 1497 1498 1499 1500 1501 1502 1503 1504 1505 1506 1508 1509 1511 1512 1513 1515 1516 1518 1520 1522 1523 1525 1526 1528 1530 1532 1533 1535 1536 1538 1539 1540 1542 1543 1544 1545 1547 1548
1492 1493 1493 1493 1494 1495 1495 1496 1498 1498 1499 1500 1502 1503 1504 1506 1507 1508 1510 1511 1512 1514 1516 1517 1519 1521 1523 1524 1526 1528 1530 1531 1533 1534 1535 1537 1538 1539 1540 1542 1543 1545 1546
1490 1490 1490 1491 1491 1492 1493 1494 1494 1495 1496 1498 1499 1501 1502 1503 1505 1506 1507 1509 1510 1512 1514 1516 1517 1519 1521 1523 1525 1526 1528 1529 1530 1532 1533 1534 1535 1536 1538 1540 1541 1542 1543
1487 1488 1488 1488 1489 1489 1491 1492 1493 1494 1494 1496 1497 1498 1499 1501 1502 1504 1505 1506 1508 1509 1511 1513 1515 1516 1518 1520 1522 1524 1526 1529 1528 1529 1529 1531 1532 1534 1535 1536 1538 1540 1541
1485 1485 1486 1486 1486 1487 1488 1489 1491 1492 1493 1494 1494 1495 1497 1498 1499 1501 1502 1503 1505 1506 1508 1510 1512 1514 1515 1518 1520 1522 1524 1524 1525 1526 1526 1528 1529 1530 1532 1533 1534 1536 1538
1483 1483 1483 1483 1484 1485 1486 1486 1487 1488 1489 1490 1492 1493 1494 1495 1496 1498 1499 1500 1502 1503 1505 1507 1509 1511 1513 1514 1516 1518 1520 1520 1522 1522 1524 1525 1526 1527 1529 1530 1531 1533 1534
1481 1481 1481 1481 1482 1482 1483 1484 1485 1486 1487 1488 1489 1490 1491 1492 1493 1494 1496 1497 1498 1500 1502 1504 1506 1508 1509 1511 1513 1515 1516 1517 1518 1520 1520 1522 1523 1524 1525 1526 1528 1529 1530
1479 1479 1479 1479 1479 1480 1480 1481 1482 1483 1484 1485 1486 1487 1488 1489 1490 1491 1492 1494 1495 1497 1498 1500 1502 1504 1506 1508 1509 1511 1513 1514 1515 1516 1517 1518 1520 1521 1522 1523 1524 1526 1527